This is the latest recevied weather packets stored in our database for station/object SP1BMW-13. If no packets are shown the sender has not sent any weather packets the latest 10 day(s).
| Time | Temp. | Humidity | Pressure | Rain* | Wind** | Luminosity | Snow |
|---|---|---|---|---|---|---|---|
| 1787908758 | 21.11° C | 55% | 1010.4 hPa | 0 mm | 2.68 m/s, 49° | 426 W/m² | - |
| 1787908698 | 21.11° C | 57% | 1010.2 hPa | 0 mm | 0.45 m/s, 35° | 403 W/m² | - |
| 1787908638 | 21.11° C | 56% | 1010.3 hPa | 0 mm | 0.89 m/s, 69° | 296 W/m² | - |
| 1787908578 | 21.11° C | 55% | 1010.3 hPa | 0 mm | 3.13 m/s, 96° | 297 W/m² | - |
| 1787908518 | 21.11° C | 56% | 1010 hPa | 0 mm | 1.79 m/s, 68° | 310 W/m² | - |
| 1787908458 | 21.11° C | 57% | 1010.2 hPa | 0 mm | 1.34 m/s, 106° | 291 W/m² | - |
| 1787908398 | 20.56° C | 58% | 1010.1 hPa | 0 mm | 0.45 m/s, 107° | 303 W/m² | - |
| 1787908338 | 20.56° C | 58% | 1010.2 hPa | 0 mm | 1.34 m/s, 37° | 329 W/m² | - |
| 1787908278 | 20.56° C | 58% | 1010.1 hPa | 0 mm | 1.79 m/s, 76° | 339 W/m² | - |
| 1787908218 | 20.56° C | 58% | 1010.2 hPa | 0 mm | 1.34 m/s, 114° | 386 W/m² | - |
| 1787908158 | 20.56° C | 58% | 1010.1 hPa | 0 mm | 1.34 m/s, 40° | 318 W/m² | - |
| 1787908098 | 20.56° C | 59% | 1009.9 hPa | 0 mm | 0.89 m/s, 59° | 314 W/m² | - |
| 1787908038 | 20.56° C | 58% | 1009.9 hPa | 0 mm | 1.79 m/s, 163° | 277 W/m² | - |
| 1787907978 | 20° C | 59% | 1010.2 hPa | 0 mm | 1.34 m/s, 337° | 257 W/m² | - |
| 1787907918 | 20° C | 58% | 1010.3 hPa | 0 mm | 2.24 m/s, 73° | 240 W/m² | - |
| 1787907858 | 20° C | 58% | 1010 hPa | 0 mm | 1.34 m/s, 24° | 229 W/m² | - |
| 1787907798 | 20° C | 58% | 1009.9 hPa | 0 mm | 0.89 m/s, 46° | 214 W/m² | - |
| 1787907738 | 20° C | 59% | 1010 hPa | 0 mm | 1.34 m/s, 53° | 203 W/m² | - |
| 1787907678 | 20° C | 60% | 1009.7 hPa | 0 mm | 0.45 m/s, 358° | 195 W/m² | - |
| 1787907618 | 20° C | 61% | 1009.4 hPa | 0 mm | 0.45 m/s, 124° | 191 W/m² | - |
| 1787907558 | 20° C | 59% | 1009.4 hPa | 0 mm | 0.89 m/s, 183° | 186 W/m² | - |
| 1787907498 | 19.44° C | 60% | 1009.3 hPa | 0 mm | 0.89 m/s, 65° | 181 W/m² | - |
| 1787907438 | 19.44° C | 60% | 1009.1 hPa | 0 mm | 0.89 m/s, 122° | 177 W/m² | - |
| 1787907378 | 19.44° C | 60% | 1009.1 hPa | 0 mm | 2.24 m/s, 103° | 174 W/m² | - |
| 1787907318 | 19.44° C | 61% | 1009.1 hPa | 0 mm | 1.34 m/s, 39° | 170 W/m² | - |
* Rain latest hour (hover to see other rain measurements)
** Current wind speed in m/s (hover to see current wind gust speed)